Location: Arbon
(43.0005°N, 0.7472°E)
Time: 18:32:43
(UTC+00:00)

Cosmos 1680 Rocket - Pass Details

Date: 07 August 2020
Orbit: 760 x 780 km, 74.1° (Epoch: 23 September)

Event Time Altitude Azimuth Distance (km) Brightness Sun altitude
Rises 02:11:20 0° 342° (NNW) 3,243 7.3 -23.8°
Reaches altitude 10° 02:13:45 10° 346° (NNW) 2,310 6.5 -23.5°
Maximum altitude 02:18:57 64° 67° (ENE) 846 3.8 -23.0°
Enters shadow 02:22:51 18° 146° (SE) 1,820 5.2 -22.5°
